SES-5 (EGNOS/PRN 136)

Last updated on Thu Nov 21 2024 00:03:19 GMT+0000 (Coordinated Universal Time)

1 38652U 12036A 24324.58156719 .00000036 00000+0 00000+0 0 9990 2 38652 0.0586 299.4219 0002329 302.8748 31.1613 1.00271858 38726
UTC large
Height (km)
Speed (km/s)
/
Latitude / Longitude
Inclination (degrees)
Orbital Period (minutes)
Azimuth
Elevation
Range (km)
Doppler Factor

Next 0 passes for location: London (51.5072 / 0.1276)

Sorry there are no passes over London.